Fort Lauderdale, FL

4:13 AM EST on December 07, 2019 (GMT -0500)
Fort Lauderdale Executive

Weather History for KFXE - October, 2019

Change the Weather History Date:

Tuesday, October 15, 2019

  Actual Average Record
Temperature  
Mean Temperature 78 °F -  
Max Temperature 84 °F 86 °F 92 °F (1986)
Min Temperature 72 °F 70 °F 56 °F (1977)
Cooling Degree Days 13    
Growing Degree Days 28 (Base 50)    
Moisture  
Dew Point 70 °F    
Average Humidity 75    
Maximum Humidity 93    
Minimum Humidity 65    
Precipitation  
Precipitation 0.00 in - - ()
Sea Level Pressure  
Sea Level Pressure 30.03 in    
Wind  
Wind Speed 6 mph ()    
Max Wind Speed 14 mph    
Max Gust Speed -    
Visibility 10.0 miles    
Events      
Averages and records for this station are not official NWS values.
T = Trace of Precipitation, MM = Missing Value Source: Averaged Metar Reports

Daily Weather History Graph

Daily Weather History Graph

Search for Another Location

Airport or City:

Astronomy

Oct. 15, 2019 Rise Set
Actual Time 7:19 AM EDT 6:52 PM EDT
Civil Twilight 6:56 AM EDT 7:16 PM EDT
Nautical Twilight 6:29 AM EDT 7:43 PM EDT
Astronomical Twilight 6:02 AM EDT 8:09 PM EDT
Moon 8:19 PM EDT (10/15) 8:44 AM EDT (10/15)
Length of Visible Light 12h 19m
Length of Day
11h 33m
Full, 97% of the Moon is Illuminated
Oct 15
Full
Oct 21
Last Quarter
Oct 27
New
Nov 4
First Quarter
Nov 12
Full

Hourly Weather History & Observations

Time (EDT) Temp. Heat Index Dew Point Humidity Pressure Visibility Wind Dir Wind Speed Gust Speed Precip Events Conditions
12:53 AM 77.0 °F - 69.1 °F 76% 30.07 in 10.0 mi ENE 4.6 mph - N/A   Partly Cloudy
1:53 AM 75.9 °F - 69.1 °F 79% 30.06 in 10.0 mi East 3.5 mph - N/A   Clear
2:53 AM 73.9 °F - 69.1 °F 85% 30.05 in 10.0 mi Calm Calm - N/A   Clear
3:53 AM 73.9 °F - 70.0 °F 87% 30.03 in 10.0 mi NNE 3.5 mph - N/A   Clear
4:53 AM 73.0 °F - 69.1 °F 87% 30.04 in 10.0 mi Calm Calm - N/A   Clear
5:53 AM 72.0 °F - 69.1 °F 91% 30.04 in 10.0 mi Calm Calm - N/A   Clear
6:53 AM 72.0 °F - 70.0 °F 93% 30.04 in 10.0 mi North 4.6 mph - N/A   Scattered Clouds
7:53 AM 73.9 °F - 70.0 °F 87% 30.06 in 10.0 mi North 4.6 mph - N/A   Clear
8:53 AM 78.1 °F - 70.0 °F 76% 30.05 in 10.0 mi NNE 3.5 mph - N/A   Scattered Clouds
9:53 AM 81.0 °F 84.4 °F 70.0 °F 69% 30.06 in 10.0 mi East 9.2 mph - N/A   Scattered Clouds
10:53 AM 82.0 °F 85.9 °F 70.0 °F 67% 30.07 in 10.0 mi ENE 8.1 mph - N/A   Scattered Clouds
11:20 AM 82.0 °F 85.9 °F 70.0 °F 67% 30.06 in 10.0 mi East 9.2 mph - N/A   Scattered Clouds
11:41 AM 82.9 °F 87.0 °F 70.0 °F 65% 30.05 in 10.0 mi East 12.7 mph - N/A   Scattered Clouds
11:53 AM 82.9 °F 87.0 °F 70.0 °F 65% 30.06 in 10.0 mi ESE 10.4 mph - N/A   Scattered Clouds
12:53 PM 82.9 °F 87.0 °F 70.0 °F 65% 30.04 in 10.0 mi East 11.5 mph - N/A   Scattered Clouds
1:53 PM 82.9 °F 88.0 °F 72.0 °F 69% 30.02 in 10.0 mi East 12.7 mph - N/A   Scattered Clouds
2:53 PM 84.0 °F 90.2 °F 73.0 °F 69% 29.99 in 10.0 mi East 12.7 mph - N/A   Overcast
3:53 PM 84.0 °F 89.6 °F 72.0 °F 67% 29.98 in 10.0 mi ESE 11.5 mph - N/A   Mostly Cloudy
4:53 PM 82.9 °F 87.5 °F 71.1 °F 67% 29.97 in 10.0 mi ESE 10.4 mph - N/A   Scattered Clouds
5:53 PM 81.0 °F 85.2 °F 72.0 °F 74% 29.97 in 10.0 mi East 13.8 mph - N/A   Mostly Cloudy
6:53 PM 80.1 °F 83.6 °F 71.1 °F 74% 29.97 in 10.0 mi East 12.7 mph - N/A   Scattered Clouds
7:53 PM 80.1 °F 83.2 °F 70.0 °F 71% 29.98 in 10.0 mi East 11.5 mph - N/A   Mostly Cloudy
8:53 PM 79.0 °F - 70.0 °F 74% 30.00 in 10.0 mi East 9.2 mph - N/A   Clear
9:53 PM 79.0 °F - 70.0 °F 74% 30.01 in 10.0 mi ESE 6.9 mph - N/A   Clear
10:53 PM 79.0 °F - 70.0 °F 74% 30.00 in 10.0 mi ESE 8.1 mph - N/A   Scattered Clouds
11:53 PM 79.0 °F - 70.0 °F 74% 29.99 in 10.0 mi ESE 9.2 mph - N/A   Scattered Clouds